www.pogodaiklimat.ru

Погода и климат >> Архив погоды >> Кувейт >> Mitribah


ПОГОДА в Mitribah

  • Прогноз погоды в Mitribah
  • Монитор погоды в Mitribah
  • Климат города

АРХИВ ПОГОДЫ в Mitribah

Время (UTC), дата Ветер
(напр.,м/с)
 
Видим.   Явления Облачность Т
(С)
Тd
(С)
f
(%)
Тe
(С)
Тes
(С)
Комфортность P
(гПа)
Po
(гПа)
Тmin
(С)
Tmax
(С)
R
(мм)
R24
(мм)
S
(см)
09 19.09 В 3-6
{7}
14 км н/о +44.5 +16.4 20 +46 +46 опасность
перегрева
1005.2 1005.0
12 19.09 СВ 4-7
{7}
16 км н/о +45.7 +14.3 16 +46 +46 опасность
перегрева
1003.5 1004.0
15 19.09 В 6-8
{10}
12 км н/о +39.7 +16.4 26 +42 +42 опасность
перегрева
1004.1 1004.0
18 19.09 ЮВ 4-5
{10}
10 км н/о +34.9 +21.4 46 +43 +43 опасность
перегрева
1005.8 1006.0
21 19.09 ЮВ 6-7
{8}
8000 м дымка н/о +32.5 +21.5 52 +40 +40 очень
душно
1005.1 1005.0 +27.5 +46.7
00 20.09 Ю 4-5
{8}
7000 м дымка н/о +29.6 +22.6 66 +39 +39 очень
душно
1005.0 1005.0
03 20.09 Ю 4-5
{8}
8000 м дымка н/о +28.9 +20.5 61 +36 +36 очень
душно
1005.9 1006.0
06 20.09 ЮЗ 5-7
{8}
14 км н/о +38.8 +13.6 22 +39 +39 очень
жарко
1006.6 1007.0
09 20.09 З 5-8
{8}
16 км н/о +46.3 +8.0 10 +44 +44 опасность
перегрева
1005.4 1005.0
12 20.09 СЗ 6-10
{11}
16 км н/о +46.0 +5.7 9 +43 +43 опасность
перегрева
1003.6 1004.0
15 20.09 С 5-6
{10}
19 км н/о +41.6 +4.6 11 +39 +39 очень
жарко
1004.1 1004.0
18 20.09 СЗ 5-6
{10}
18 км н/о +36.6 +5.1 14 +34 +34 очень
жарко
1006.0 1006.0
21 20.09 СЗ 3-4
{6}
17 км н/о +32.3 +5.9 19 +30 +30 жарко 1006.0 1006.0 +28.2 +47.6
00 21.09 СЗ 4-5
{6}
5000 м дымка н/о +29.8 +9.0 27 +29 +29 жарко 1006.1 1006.0
03 21.09 ЮЗ 4-5
{5}
6000 м дымка н/о +28.1 +7.4 27 +27 +27 жарко 1007.1 1007.0
06 21.09 СЗ 5-6
{7}
16 км н/о +39.2 +5.8 13 +36 +36 очень
жарко
1008.1 1008.0
09 21.09 С 6-9
{10}
19 км н/о +43.5 +5.1 10 +41 +41 опасность
перегрева
1007.1 1007.0
12 21.09 СЗ 5-9
{10}
18 км н/о +45.4 +4.4 9 +43 +43 опасность
перегрева
1005.5 1006.0
15 21.09 СЗ 3-4
{9}
18 км н/о +39.9 +3.2 10 +36 +36 очень
жарко
1006.2 1006.0
18 21.09 С 2-2
{9}
18 км н/о +35.0 +2.6 13 +32 +32 жарко 1007.9 1008.0
21 21.09 ЮЗ 4-4
{4}
19 км н/о +30.1 +2.3 17 +28 +28 жарко 1007.9 1008.0 +27.7 +46.0
00 22.09 ЮЗ 4-4
{4}
20 км н/о +28.4 +2.0 18 +26 +26 жарко 1007.5 1008.0
03 22.09 Ю 3-5
{5}
19 км н/о +27.4 +2.0 19 +26 +26 жарко 1008.2 1008.0
06 22.09 З 5-9
{9}
18 км н/о +39.0 +6.5 14 +36 +36 очень
жарко
1010.0 1010.0
09 22.09 СВ 2-3
{14}
19 км н/о +45.4 +5.2 9 +43 +43 опасность
перегрева
1007.7 1008.0
12 22.09 СЗ 7-10
{14}
5000 м дымка н/о +43.9 +5.6 10 +41 +41 опасность
перегрева
1006.5 1007.0
15 22.09 С 6-7
{7}
11 км н/о +40.3 +5.9 12 +37 +37 очень
жарко
1007.1 1007.0
18 22.09 СВ 1-2
{7}
11 км н/о +35.3 +5.3 16 +33 +33 жарко 1008.4 1008.0
21 22.09 Ю 3-4
{4}
15 км н/о +35.0 +5.1 16 +32 +32 жарко 1007.8 1008.0 +26.8 +47.1
00 23.09 Ю 4-5
{6}
15 км н/о +30.7 +4.6 19 +29 +29 жарко 1007.5 1008.0
03 23.09 З 4-4
{10}
13 км н/о +29.5 +4.8 21 +28 +28 жарко 1008.9 1009.0
06 23.09 ЮЗ 4-5
{10}
10 км н/о +39.5 +6.0 13 +37 +37 очень
жарко
1009.4 1009.0
09 23.09 ЮЗ 4-6
{8}
12 км н/о +43.9 +6.5 11 +41 +41 опасность
перегрева
1008.4 1008.0
12 23.09 З 5-9
{9}
15 км н/о +46.5 +5.0 8 +43 +43 опасность
перегрева
1006.3 1006.0
15 23.09 СЗ 5-6
{8}
14 км н/о +40.3 +4.9 12 +37 +37 очень
жарко
1007.1 1007.0
18 23.09 СЗ 3-4
{8}
12 км н/о +34.4 +4.5 15 +32 +32 жарко 1008.6 1009.0
21 23.09 СЗ 2-2
{5}
15 км н/о +31.6 +5.1 19 +30 +30 жарко 1009.3 1009.0 +28.2 +46.9
00 24.09 СЗ 4-4
{6}
20 км н/о +29.0 +4.8 21 +27 +27 жарко 1008.8 1009.0
03 24.09 СЗ 4-5
{6}
19 км н/о +27.2 +4.1 23 +26 +26 жарко 1009.6 1010.0
06 24.09 С 7-9
{9}
19 км н/о +36.7 +3.7 13 +34 +34 очень
жарко
1010.2 1010.0
09 24.09 СЗ 7-9
{10}
20 км н/о +41.6 +6.3 12 +39 +39 очень
жарко
1009.0 1009.0
12 24.09 СЗ 6-8
{10}
19 км н/о +43.0 +5.7 11 +40 +40 очень
жарко
1007.5 1008.0
15 24.09 СЗ 4-5
{10}
18 км н/о +37.6 +5.2 14 +35 +35 очень
жарко
1007.9 1008.0
18 24.09 СЗ 4-5
{10}
20 км н/о +32.5 +5.1 18 +30 +30 жарко 1009.1 1009.0
21 24.09 З 4-4
{5}
19 км н/о +28.2 +3.8 21 +27 +27 жарко 1009.0 1009.0 +26.5 +44.0
00 25.09 З 5-6
{6}
20 км н/о +27.3 +4.1 23 +26 +26 жарко 1008.2 1008.0
03 25.09 ЮЗ 4-4
{7}
20 км н/о +23.8 +3.8 27 +23 +23 комфорт 1009.6 1010.0
06 25.09 З 8-10
{10}
19 км н/о +37.0 +4.3 13 +34 +34 очень
жарко
1009.4 1009.0
09 25.09 З 8-12
{12}
18 км н/о +42.0 +4.5 10 +39 +39 очень
жарко
1007.7 1008.0
12 25.09 З 11-14
{15}
17 км н/о +42.1 +2.8 9 +39 +39 очень
жарко
1005.7 1006.0
15 25.09 СЗ 6-7
{13}
20 км н/о +37.2 +2.4 11 +34 +34 очень
жарко
1006.1 1006.0
18 25.09 З 5-5
{13}
19 км н/о +31.5 +1.8 15 +29 +29 жарко 1007.5 1008.0
21 25.09 ЮЗ 4-5
{6}
16 км н/о +27.2 +1.5 19 +25 +25 комфорт 1007.2 1007.0 +23.7 +43.2
00 26.09 З 5-5
{6}
20 км н/о +26.7 +2.8 21 +25 +25 комфорт 1006.9 1007.0
03 26.09 ЮЗ 4-5
{7}
18 км н/о +25.7 +2.9 23 +25 +25 комфорт 1007.5 1008.0

 

Местоположение метеостанции Mitribah (Кувейт): широта 29.82 долгота 47.37 высота над уровнем моря 119 м.

В архиве по умолчанию представлена погода в Mitribah за последнюю неделю. Архивные данные за месяц целиком и за предыдущие месяцы, начиная с января 2011 года, Вы можете получить, выбрав интересующий диапазон дат из раскрывающегося списка и нажав кнопку "Ввод!".


*Определитесь, кто Вы:
робот инопланетянин человек

Внимание! Время в таблицах - всемирное. Для получения местного времени необходимо прибавить поправку, которая в Mitribah равна 3 ч.

Смотрите также архив погоды в соседних городах и на ближайших метеорологических станциях:

Погода в Jal Aliyah (Кувейт) (31 км)
Погода в Abdaly (Кувейт) (43 км)
Погода в Sabriyah (Кувейт) (47 км)
Погода в Jahra (Кувейт) (63 км)
Погода в Abraque Al Habari (Кувейт) (68 км)
Погода в Sulaibiya (Кувейт) (70 км)
Погода в Experimental Farm (Кувейт) (81 км)
Погода в Minagish (Кувейт) (85 км)
Погода в Kuwait City (Кувейт) (85 км)
Погода в Basrah Airport (Ирак) (87 км)

Пояснения к столбцам:

Ветер - указаны скорость ветра в м/с - средняя за 10 мин, порывы в срок и между сроками (в фигурных скобках) и направление, откуда дует ветер: С - северный, СВ - северо-восточный, В - восточный, ЮВ - юго-восточный, Ю - южный, ЮЗ - юго-западный, З - западный, СЗ - северо-западный.
Видимость - горизонтальная дальность видимости в метрах или километрах. При видимости от 1 до 10 км при отсутствии осадков обычно наблюдается дымка, при ухудшении видимости до 1 км и менее - туман. В сухую погоду видимость может ухудшаться дымом, пылью или мглою.
Явления - указаны атмосферные явления, наблюдавшиеся в срок или в последний час перед сроком; фигурными скобками обозначены явления, наблюдавшиеся между сроками (за 1-3 часа до срока); квадратными скобками обозначены град или гололедные отложения с указанием их диаметра в мм.
Облачность - указаны через наклонную черту общая и нижняя облачность в баллах и высота нижней границы облаков в метрах; квадратными скобками обозначены формы облаков: Ci - перистые, Cs - перисто-слоистые, Cc - перисто-кучевые, Ac - высококучевые, As - высокослоистые, Sc - слоисто-кучевые, Ns - слоисто-дождевые, Cu - кучевые, Cb - кучево-дождевые. Подробнее классификацию облаков см. в Атласе облаков (PDF).
T - Температура воздуха - температура, измеренная на высоте 2 м над землей.
Td - Температура точки росы - температура, при понижении до которой содержащийся в воздухе водяной пар достигнет насыщения.
f - Относительная влажность воздуха - влажноcть воздуха, измеренная на высоте 2 м над землей.
Te - Эффективная температура - температура, которую ощущает одетый по сезону человек в тени. Характеристика душности погоды. При расчете учитывается влияние влажности воздуха и скорости ветра на теплоощущения человека.
Tes - Эффективная температура на солнце - температура, которую ощущает человек, с поправкой на солнечный нагрев. Характеристика знойности погоды. Зависит от высоты солнца над горизонтом, облачности и скорости ветра. Ночью, в пасмурную погоду, а также при ветре 12 м/с и более поправка равна нулю.
P - Атмосферное давление - приведенное к уровню моря атмосферное давление.
Po - Атмосферное давление - измеренное на уровне метеостанции атмосферное давление.
Tmin - Минимальная температура - минимум температуры воздуха на высоте 2 м над землей.
Tmax - Максимальная температура - максимум температуры воздуха на высоте 2 м над землей.
R - Количество осадков - Количество выпавших осадков за период времени, мм. При наведении курсора мыши на число - период времени, за который выпало указанное количество осадков.
R24 - Количество осадков - Количество выпавших осадков за 24 часа, мм.
S - Снежный покров - Высота снежного покрова, см. При наведении курсора мыши на число - состояние снежного покрова и степень покрытия местности в баллах.